{"data":{"norad_id":67943,"epoch":"2026-09-19T02:48:16.163136Z","epoch_age_seconds":182714,"freshness":"STALE","line1":"1 67943U 26037M   26262.11685374  .00011222  00000+0  41656-3 0  9992","line2":"2 67943  43.0001 178.2801 0002011 254.4540 105.6090 15.27591912 32923","mean_motion":15.27591912,"eccentricity":0.0002011,"inclination_deg":43.0001,"raan_deg":178.2801,"arg_perigee_deg":254.454,"mean_anomaly_deg":105.609,"bstar":0.00041656,"rev_number":3292,"period_min":94.266013631525,"perigee_km":481.63365010716,"apogee_km":484.39320480908,"semimajor_km":6861.1504274581,"source":"CELESTRAK","updated_at":"2026-09-20T09:00:43.709022Z"}}